{"data":{"norad_id":66420,"intl_designator":"2025-258J","name":"HULIANWANG DIGUI-104","alt_names":[],"object_type":"PAYLOAD","status":"ACTIVE","operator":null,"country":"PRC","launch_date":"2025-11-10","launch_site_code":"WSC","launch_vehicle":null,"mission":null,"orbit_class":"UNKNOWN","rcs_meters":null,"size_class":null,"mass_kg":null,"dimensions":null,"purposes":[],"wikipedia_slug":null,"has_3d_model":false,"image_url":null,"decayed_at":null,"tle_current":{"epoch":"2026-05-25T00:24:06.825888Z","epoch_age_seconds":84187,"freshness":"FRESH","line1":"1 66420U 25258J   26145.01674567 -.00000085  00000+0  83626-4 0  9996","line2":"2 66420  50.0041  18.4068 0001005  54.5458 305.5508 13.29322800 26648","mean_motion":13.293228,"eccentricity":0.0001005,"inclination_deg":50.0041,"raan_deg":18.4068,"arg_perigee_deg":54.5458,"mean_anomaly_deg":305.5508,"bstar":8.3626e-5,"rev_number":2664,"period_min":108.3258332739,"perigee_km":1148.5621428018,"apogee_km":1150.0751613879,"semimajor_km":7527.4556520948,"source":"CELESTRAK","updated_at":"2026-05-25T13:38:06.207440Z"}}}